Flag for U.S.A. Weather past 2 weeks in Mesquite, Texas, U.S.A.

Now
70 °F

Clear.


Feels Like: 70 °F
Forecast: 60 / 79 °F
Wind: 3 mph from Southeast

Location: Mesquite Metro Airport

Current Time: Oct 21, 2014 at 8:40:31 PM

Latest Report: Oct 21, 2014 at 7:47 PM


Visibility: 10 mi

Pressure: 30.04 "Hg

Humidity: 64%

Dew point: 57 °F

Location of MesquiteLocation

Historic Weather in Mesquite — Graph

°F

Mesquite temperature yesterday

Maximum temperature yesterday: 81 °F (at 3:55 PM)
Minimum temperature yesterday: 54 °F (at 5:15 AM)
Average temperature yesterday: 63 °F

Past Weeks' High & Low Weather Summary

 TemperatureHumidityPressure
High93 °F (Oct 7, 3:50 PM)100% (Oct 12, 7:50 PM)30.19 "Hg (Oct 12, 7:50 PM)
Low46 °F (Oct 15, 7:50 AM)22% (Oct 14, 3:50 PM)29.59 "Hg (Oct 13, 2:35 AM)
Average67 °F73%29.96 "Hg
* Reported Oct 6 5:50 PM — Oct 21 5:47 PM, Mesquite, Weather by CustomWeather, © 2014

Note: Actual official high and low records may vary slightly from our data, if they occured in-between our weather recording intervals... More about our weather records

Advertising

Mesquite weather history for previous 24 hours

 ConditionsComfort  
Time TempWeatherWind HumidityBarometerVisibility
5:47 PM
Oct 21
81 °FSunny.6 mph42%30.02 "Hg10 mi
4:50 PM81 °FSunny.5 mph42%30.03 "Hg10 mi
3:50 PM77 °FSunny.No wind47%30.03 "Hg10 mi
2:50 PM81 °FSunny.7 mph42%30.04 "Hg10 mi
1:50 PM81 °FSunny.7 mph42%30.07 "Hg10 mi
12:50 PM79 °FSunny.6 mph42%30.09 "Hg10 mi
11:50 AM75 °FSunny.5 mph50%30.12 "Hg10 mi
10:50 AM72 °FSunny.No wind65%30.12 "Hg10 mi
9:50 AM66 °FSunny.No wind78%30.12 "Hg10 mi
8:50 AM59 °FSunny.No wind94%30.12 "Hg10 mi
7:50 AM54 °FClear.No wind100%30.09 "Hg7 mi
6:50 AM54 °FClear.No wind94%30.07 "Hg10 mi
5:35 AM56 °FClear.No wind94%30.06 "Hg10 mi
5:15 AM56 °FClear.No wind94%30.06 "Hg10 mi
4:55 AM56 °FClear.No wind93%30.05 "Hg10 mi
4:15 AM56 °FClear.No wind93%30.04 "Hg10 mi
3:55 AM58 °FClear.No wind95%30.04 "Hg10 mi
3:15 AM57 °FClear.No wind93%30.05 "Hg10 mi
2:55 AM58 °FClear.No wind92%30.04 "Hg10 mi
2:35 AM58 °FClear.No wind91%30.04 "Hg10 mi
2:15 AM59 °FClear.No wind91%30.04 "Hg10 mi
1:55 AM59 °FClear.No wind91%30.05 "Hg10 mi
1:15 AM60 °FClear.3 mph87%30.05 "Hg10 mi
12:55 AM60 °FClear.3 mph87%30.05 "Hg10 mi
12:15 AM62 °FClear.5 mph84%30.05 "Hg10 mi
11:55 PM
Oct 20
63 °FClear.5 mph82%30.06 "Hg10 mi
11:15 PM64 °FClear.5 mph81%30.06 "Hg10 mi
10:55 PM65 °FClear.3 mph79%30.06 "Hg10 mi
10:15 PM66 °FClear.6 mph79%30.06 "Hg10 mi
9:55 PM65 °FClear.3 mph81%30.05 "Hg10 mi
Weather by CustomWeather, © 2014

See weather overviewHow to use our weather pages